Change the Weather History Date:

Tuesday, May 21, 2013

  Actual Average Record
Temperature  
Mean Temperature 68 °F -  
Max Temperature 73 °F 67 °F 84 °F (2007)
Min Temperature 62 °F 45 °F 28 °F (2002)
Cooling Degree Days 2    
Growing Degree Days 18 (Base 50)    
Moisture  
Dew Point 58 °F    
Average Humidity 72    
Maximum Humidity 88    
Minimum Humidity 55    
Precipitation  
Precipitation 0.00 in - - ()
Sea Level Pressure  
Sea Level Pressure 29.62 in    
Wind  
Wind Speed 7 mph (SW)    
Max Wind Speed 15 mph    
Max Gust Speed 22 mph    
Visibility 10 miles    
Events      
Averages and records for this station are not official NWS values.
T = Trace of Precipitation, MM = Missing Value Source: NWS Daily Summary

Daily Weather History Graph

Daily Weather History Graph

Search for Another Location

Airport or City:

Trip Planner

Search our weather history database for the weather conditions in past years. The results will help you decide how hot, cold, wet, or windy it might be!

Date:

Astronomy

May. 21, 2013 Rise Set
Actual Time 5:30 AM CDT 8:24 PM CDT
Civil Twilight 4:57 AM CDT 8:57 PM CDT
Nautical Twilight 4:14 AM CDT 9:40 PM CDT
Astronomical Twilight 3:25 AM CDT 10:30 PM CDT
Moon 4:32 PM CDT (5/21) 3:05 AM CDT (5/21)
Length of Visible Light 16h 00m
Length of Day
14h 53m
Waxing Gibbous, 84% of the Moon is Illuminated
May 21
Waxing Gibbous
May 24
Full
May 31
Last Quarter
Jun 8
New
Jun 16
First Quarter

Hourly Weather History & Observations

Time (CDT) Temp. Dew Point Humidity Pressure Visibility Wind Dir Wind Speed Gust Speed Precip Events Conditions
12:56 AM 72.0 °F 57.9 °F 61% 29.60 in 10.0 mi South 11.5 mph 19.6 mph N/A   Mostly Cloudy
1:56 AM 68.0 °F 59.0 °F 73% 29.62 in 10.0 mi West 15.0 mph 20.7 mph N/A   Overcast
2:56 AM 63.0 °F 59.0 °F 87% 29.58 in 10.0 mi Calm Calm - N/A   Mostly Cloudy
3:56 AM 64.0 °F 60.1 °F 87% 29.57 in 10.0 mi Calm Calm - N/A   Mostly Cloudy
4:56 AM 64.0 °F 59.0 °F 84% 29.58 in 10.0 mi ESE 4.6 mph - N/A   Overcast
5:38 AM 64.4 °F 60.8 °F 88% 29.61 in 10.0 mi Calm Calm - N/A   Overcast
5:56 AM 64.9 °F 60.1 °F 84% 29.59 in 9.0 mi Calm Calm - N/A   Overcast
6:05 AM 64.4 °F 60.8 °F 88% 29.62 in 9.0 mi Calm Calm - N/A   Mostly Cloudy
6:45 AM 64.4 °F 60.8 °F 88% 29.62 in 10.0 mi South 4.6 mph - N/A   Overcast
6:56 AM 64.9 °F 60.1 °F 84% 29.60 in 10.0 mi South 4.6 mph - N/A   Overcast
7:56 AM 66.0 °F 60.1 °F 81% 29.60 in 8.0 mi South 9.2 mph - N/A   Overcast
8:56 AM 66.9 °F 61.0 °F 81% 29.61 in 7.0 mi South 15.0 mph - N/A   Overcast
9:56 AM 70.0 °F 61.0 °F 73% 29.61 in 7.0 mi SSW 12.7 mph - N/A   Overcast
10:32 AM 71.6 °F 60.8 °F 69% 29.63 in 10.0 mi SW 9.2 mph - N/A   Mostly Cloudy
10:56 AM 71.1 °F 57.9 °F 63% 29.60 in 10.0 mi SSW 15.0 mph 20.7 mph N/A   Scattered Clouds
11:56 AM 72.0 °F 57.0 °F 59% 29.60 in 10.0 mi SW 11.5 mph - N/A   Mostly Cloudy
12:56 PM 72.0 °F 55.9 °F 57% 29.61 in 10.0 mi WSW 12.7 mph 21.9 mph N/A   Overcast
1:56 PM 72.0 °F 57.0 °F 59% 29.63 in 9.0 mi WSW 11.5 mph 21.9 mph N/A   Overcast
2:56 PM 71.1 °F 55.9 °F 59% 29.65 in 10.0 mi WSW 11.5 mph - N/A   Overcast
3:56 PM 72.0 °F 57.0 °F 59% 29.64 in 10.0 mi SW 10.4 mph 20.7 mph N/A   Mostly Cloudy
4:56 PM 72.0 °F 55.0 °F 55% 29.64 in 10.0 mi WSW 12.7 mph 17.3 mph N/A   Overcast
5:56 PM 71.1 °F 55.9 °F 59% 29.63 in 10.0 mi SSW 6.9 mph - N/A   Overcast
6:56 PM 71.1 °F 55.9 °F 59% 29.64 in 10.0 mi SW 5.8 mph - N/A   Overcast
7:56 PM 69.1 °F 57.0 °F 65% 29.65 in 10.0 mi WNW 5.8 mph - N/A   Overcast
8:56 PM 68.0 °F 57.0 °F 68% 29.67 in 10.0 mi Calm Calm - N/A   Overcast
9:56 PM 66.9 °F 55.9 °F 68% 29.67 in 10.0 mi Calm Calm - N/A   Overcast
10:56 PM 63.0 °F 55.9 °F 78% 29.66 in 10.0 mi Calm Calm - N/A   Partly Cloudy
11:56 PM 62.1 °F 57.9 °F 86% 29.66 in 10.0 mi Calm Calm - N/A   Overcast